Theta_e
316 316 316 316 316 316 316 316 316 317 318 318 319 318 318 319 319 311 300 307 311 326 325 307 312 309 306 302 303 299 293 290 294 296 299 308 305 305 320 318 325 335 335 337 340
315 315 315 315 315 315 315 316 316 317 317 318 319 319 319 319 307 303 312 324 327 330 308 303 302 305 299 298 300 298 291 293 299 301 301 301 300 302 310 319 320 334 339 339 340
315 315 315 315 315 315 315 315 316 316 317 318 318 318 318 315 297 297 323 327 330 329 307 306 303 303 296 295 297 295 293 298 301 305 306 304 303 303 304 309 322 330 336 338 337
314 314 314 314 314 314 315 315 315 316 317 317 317 318 318 307 288 300 337 333 333 319 307 305 301 296 292 293 295 293 297 299 300 303 301 303 303 302 303 306 321 330 338 338 336
313 314 314 313 314 314 315 315 315 315 315 316 317 317 308 294 296 303 329 336 324 312 305 301 298 296 293 293 293 292 295 298 301 301 301 303 303 303 303 307 310 337 339 336 336
314 313 313 313 313 314 315 315 315 314 315 316 317 318 302 290 300 307 320 317 315 307 304 302 300 299 296 294 294 296 294 297 298 298 299 300 302 303 306 307 308 336 336 337 336
313 313 313 314 313 314 315 315 314 314 315 316 318 314 300 296 302 305 310 310 314 307 303 303 302 300 297 292 295 295 291 294 294 296 297 300 299 301 309 306 316 331 335 337 338
313 313 313 313 313 314 314 315 315 317 316 318 319 310 294 303 304 307 306 304 313 309 306 305 302 298 294 294 294 289 289 286 292 295 298 299 292 301 309 311 322 329 334 336 337
312 312 312 313 313 314 314 314 318 319 320 320 308 299 295 309 304 308 306 303 306 306 305 307 301 295 294 289 286 287 284 285 290 294 296 296 292 301 308 316 320 326 332 335 336
312 311 311 312 313 313 313 314 322 318 317 318 313 296 300 299 307 308 306 306 304 303 301 297 292 289 286 285 281 284 284 286 287 291 293 291 292 298 308 309 308 312 324 333 333
312 311 311 312 313 312 307 300 295 293 297 294 297 298 301 306 309 306 307 305 304 298 292 293 288 285 288 289 291 289 287 287 289 293 291 291 291 295 304 305 309 312 314 318 325
311 311 312 312 312 312 301 295 297 297 289 298 298 299 303 304 300 302 306 299 297 293 292 289 286 291 293 291 291 289 287 286 289 292 291 289 290 293 296 301 308 311 313 317 319
310 310 311 311 311 303 298 299 298 296 290 296 301 300 301 302 298 299 304 298 294 290 290 288 292 295 293 290 289 287 286 286 288 291 290 288 287 291 296 299 302 309 313 315 317
310 310 311 310 302 298 296 300 300 297 286 293 299 300 301 301 297 305 304 300 292 292 290 288 292 293 290 290 290 285 291 291 290 287 283 289 281 287 292 295 298 304 308 311 315
309 310 310 310 297 296 300 299 298 300 279 297 297 304 300 297 298 300 303 298 294 293 292 290 291 290 289 290 293 289 294 291 290 286 284 285 282 286 288 290 294 299 302 307 311
309 310 309 304 296 298 299 298 300 289 281 293 296 294 293 295 297 298 297 299 298 293 292 291 295 294 293 295 295 296 292 289 286 284 280 285 284 283 287 292 293 297 301 304 308
308 309 305 306 296 303 297 298 287 282 292 288 290 294 291 290 293 293 292 288 286 285 285 291 291 295 298 292 293 291 286 280 279 279 281 287 283 287 292 294 296 297 299 301 304
306 305 304 306 301 296 296 291 281 287 286 292 291 292 288 290 290 290 289 286 289 289 285 284 285 292 296 294 290 289 287 281 277 278 282 286 283 287 294 298 301 298 297 299 300
304 298 298 301 300 296 293 281 280 285 289 288 289 286 285 288 288 290 286 285 288 290 283 282 285 293 298 296 294 290 284 288 283 282 280 283 288 293 299 299 300 301 301 299 300
293 294 296 301 296 294 287 284 285 290 291 289 283 286 281 283 284 287 287 288 287 291 292 286 281 291 293 296 294 292 292 285 283 278 277 281 283 286 294 296 298 299 300 301 303
292 290 297 299 295 289 281 282 288 291 292 288 285 283 283 282 282 282 283 285 288 289 292 287 284 285 290 286 284 288 283 284 286 283 278 278 281 295 294 296 296 299 302 302 302
290 286 297 295 286 282 281 285 292 288 290 289 287 285 283 282 281 282 283 285 290 291 285 286 283 279 283 288 289 286 283 283 282 281 281 280 282 298 297 298 299 299 300 304 305
287 287 295 293 280 279 284 287 289 288 287 286 285 286 285 280 278 283 284 289 289 290 283 281 277 274 274 283 287 283 283 283 283 283 281 281 283 292 295 297 299 299 300 301 305
287 283 287 286 285 281 281 283 285 290 287 287 285 285 282 279 280 279 281 287 289 288 292 287 280 276 271 276 282 279 282 283 284 279 278 279 283 288 290 293 297 296 300 301 302
286 282 284 280 282 281 281 283 284 284 287 286 283 284 281 277 277 276 281 283 285 288 284 280 275 279 280 282 281 281 281 280 279 280 277 281 281 284 291 294 294 295 300 301 303
284 283 284 282 284 282 282 280 284 285 284 283 282 285 283 279 280 279 280 279 279 281 278 279 273 278 277 281 281 279 280 280 280 280 280 280 280 287 291 292 293 295 301 300 305
288 288 285 283 281 280 280 283 285 286 287 288 286 283 282 284 286 286 285 283 283 280 278 277 275 273 273 278 278 273 278 279 281 282 280 276 281 290 288 290 291 296 301 301 301
Wind_Speed
22 22 21 21 20 19 19 18 17 16 14 13 12 10 10 10 10 2 8 14 11 10 7 5 5 5 3 1 3 4 4 4 7 7 5 2 2 3 1 2 4 7 6 6 19
23 22 22 22 21 20 19 18 17 15 14 13 11 9 8 7 2 9 13 12 15 6 3 7 5 6 2 3 1 4 4 10 8 5 3 3 4 3 2 4 5 7 6 16 17
24 24 24 24 23 20 19 18 17 16 14 11 10 8 6 3 3 8 6 15 15 10 5 6 7 6 3 2 4 5 6 6 5 4 3 3 5 3 6 2 7 12 11 17 15
25 25 25 25 24 23 21 18 17 16 14 11 8 5 4 2 4 1 5 11 17 11 6 6 5 7 5 5 4 2 7 5 4 4 2 6 2 6 5 12 7 7 12 14 18
25 26 25 25 24 23 21 20 18 15 13 11 6 3 1 2 12 4 6 7 12 12 11 7 6 7 7 5 2 4 5 5 8 8 8 2 9 8 9 12 3 11 16 17 19
24 25 25 26 25 23 22 19 17 15 11 8 6 6 4 3 5 4 9 6 8 7 7 8 9 7 5 5 6 5 4 6 6 8 5 5 7 8 12 6 4 13 18 19 21
25 25 25 25 25 24 22 20 17 15 9 6 9 4 4 16 1 6 5 3 10 7 7 5 5 6 6 1 3 5 4 6 4 5 8 8 6 13 25 6 7 11 12 14 18
25 25 25 25 25 24 23 20 18 9 4 7 10 2 8 4 2 8 5 3 6 3 4 7 3 4 3 1 7 3 3 1 6 2 6 9 10 8 17 12 8 9 11 13 14
27 26 26 26 25 24 21 19 6 9 9 12 2 2 10 6 2 4 6 4 6 3 2 5 6 3 2 5 5 6 3 4 7 3 3 6 5 5 3 13 3 6 10 15 14
29 28 27 27 25 21 19 4 9 10 5 4 4 4 6 1 3 2 4 6 5 7 4 2 5 3 4 4 7 6 4 4 4 3 4 5 6 7 2 9 9 3 6 12 13
30 30 29 26 24 19 7 2 8 5 1 7 9 6 11 7 4 3 5 6 5 5 5 4 4 6 10 8 8 5 5 5 4 5 2 7 5 10 9 6 16 16 9 8 16
31 31 30 27 23 16 1 8 7 6 13 11 14 11 15 4 7 3 6 6 5 7 6 3 6 12 8 3 6 5 5 5 6 5 6 5 9 10 8 11 17 26 30 16 10
31 31 29 24 22 4 2 6 5 5 3 9 5 4 6 8 6 8 7 4 6 4 8 9 8 5 7 5 5 4 5 4 9 5 3 3 7 5 8 9 10 18 24 14 18
31 30 29 26 5 4 4 7 4 5 5 8 5 5 4 5 2 3 4 7 2 12 7 5 5 8 5 6 8 6 8 8 6 2 5 4 7 6 7 9 8 15 14 19 17
32 30 24 11 2 3 7 9 6 4 4 9 6 4 8 7 8 6 6 3 6 5 7 10 5 6 6 9 9 9 7 9 5 5 3 5 1 8 3 7 10 11 12 12 16
33 29 21 1 1 6 8 8 3 7 6 7 5 9 7 9 9 8 9 11 3 3 2 6 3 5 8 6 8 5 4 6 5 4 3 5 8 6 6 8 5 7 13 8 12
34 27 8 2 6 13 6 4 6 4 7 8 6 7 5 8 7 11 7 13 8 9 9 8 3 5 7 3 4 4 5 3 3 0 11 2 5 9 9 9 9 10 10 8 7
35 19 3 3 7 5 3 6 3 3 3 4 5 3 5 8 6 8 4 5 7 4 2 5 4 8 10 1 3 4 9 7 7 5 7 4 7 8 8 7 10 8 7 8 7
25 5 3 10 10 2 7 6 3 2 4 6 4 5 4 5 4 5 6 6 4 5 4 5 6 4 3 5 1 3 3 7 3 1 3 5 8 3 14 13 15 13 9 8 8
4 4 4 16 6 5 8 3 1 3 4 4 1 4 4 7 6 5 2 4 5 7 0 2 5 3 7 3 6 5 4 3 3 4 4 5 2 3 13 14 14 15 13 11 8
4 5 5 18 4 8 5 1 3 4 3 4 2 2 2 3 2 4 4 3 4 4 4 2 3 7 5 6 4 5 5 5 2 3 5 3 3 3 5 7 9 10 11 10 10
5 5 7 9 8 3 3 5 5 5 5 4 3 3 1 3 4 1 2 2 5 3 2 3 3 2 3 8 14 9 5 3 1 3 1 2 4 6 7 8 8 12 14 12 11
3 4 6 6 6 4 6 5 3 3 3 2 2 1 1 1 3 1 2 3 4 2 1 2 2 3 6 3 3 5 4 3 2 1 4 5 5 8 12 12 12 11 12 14 12
3 5 6 7 2 3 4 4 6 4 2 3 2 5 2 1 1 3 2 1 2 2 4 4 2 4 6 3 2 5 9 4 2 1 6 7 7 9 14 13 13 15 16 13 12
4 0 2 5 4 2 1 3 4 6 5 6 3 2 2 2 2 3 2 4 3 3 3 4 4 4 5 6 6 8 11 7 8 7 7 4 12 13 13 9 11 9 13 15 12
2 3 4 1 3 4 3 2 3 4 3 3 4 8 4 4 5 4 1 2 6 2 2 2 3 3 4 10 10 12 12 13 11 11 18 15 24 13 9 6 7 14 11 13 11
2 2 3 2 3 2 2 2 2 4 5 2 3 3 3 3 5 7 7 6 8 7 6 5 5 2 4 2 4 9 18 15 6 6 7 10 13 8 6 8 5 7 10 7 10
Wind_Direction
350 347 344 340 337 334 332 329 325 321 318 316 316 315 312 312 306 167 233 220 192 205 100 111 90 139 121 258 179 128 77 185 193 169 237 346 33 312 209 266 237 197 151 183 139
347 345 342 338 336 332 328 326 323 319 316 315 312 308 309 317 273 243 242 212 208 176 160 139 146 132 135 204 222 132 152 204 201 199 167 219 242 270 239 239 221 192 96 121 136
346 344 342 339 334 330 328 326 322 318 315 315 311 303 307 308 313 246 317 205 204 183 127 144 123 124 174 136 211 175 201 202 249 227 223 205 251 233 292 233 220 191 160 141 138
344 342 340 336 333 329 325 321 318 315 312 310 303 291 297 274 303 65 139 199 204 158 122 114 113 121 146 192 211 195 227 222 212 211 205 263 224 287 239 259 224 199 146 144 158
342 340 338 334 330 327 322 318 313 311 307 302 280 221 172 27 252 279 336 96 115 148 161 145 132 140 163 191 178 210 236 213 226 235 254 242 252 243 255 266 313 142 156 168 167
337 336 335 332 331 327 320 314 308 303 303 291 244 175 125 277 242 74 105 117 142 123 157 138 175 178 160 189 167 224 226 245 262 256 231 203 256 154 261 240 255 165 178 171 175
336 335 334 331 330 327 321 314 309 303 286 257 197 214 121 236 289 330 194 208 161 151 157 210 152 142 139 200 231 255 290 303 238 245 212 179 255 200 243 242 208 195 188 192 187
336 333 332 330 328 328 324 319 315 306 227 178 182 246 240 236 254 298 174 120 179 218 110 146 121 93 149 234 11 337 63 329 279 6 245 155 250 225 250 212 211 204 180 189 188
335 333 332 331 330 331 328 324 348 89 118 141 168 235 269 307 260 265 151 152 140 116 140 128 119 168 104 101 11 352 233 223 308 245 258 173 256 298 218 167 345 274 196 183 190
334 332 332 331 330 330 326 294 119 99 122 207 253 308 285 266 300 85 155 132 117 105 72 110 58 101 44 103 209 223 223 241 221 285 45 313 272 313 297 127 168 200 247 201 188
334 332 333 330 329 332 342 54 10 352 356 221 241 254 291 277 290 181 135 118 118 115 164 190 123 193 217 198 202 208 201 229 248 240 251 252 253 270 238 242 198 222 205 224 200
333 333 334 330 327 328 272 88 131 250 302 249 253 250 257 43 306 319 128 148 141 195 132 66 217 224 218 176 194 201 238 270 273 260 173 269 270 259 216 223 212 206 235 203 211
334 335 334 332 322 24 18 111 126 160 274 299 222 230 280 129 199 277 178 178 175 188 184 178 221 183 175 182 163 207 187 223 232 297 252 277 293 233 265 213 217 224 218 200 193
335 336 334 328 49 319 325 335 326 173 43 287 346 344 2 127 265 224 260 170 189 203 199 215 242 196 181 213 165 235 209 230 248 129 254 148 280 253 257 234 222 219 217 214 199
335 337 337 358 266 33 292 320 300 66 340 331 354 311 339 77 306 8 41 307 222 196 117 234 199 185 195 211 176 222 205 203 213 207 71 242 227 269 294 260 251 249 244 217 193
335 335 334 14 28 256 313 309 59 47 258 352 13 354 14 1 5 311 11 22 11 356 335 236 213 178 218 235 192 198 144 51 51 106 254 188 179 267 215 208 250 218 250 224 195
335 331 323 325 311 322 324 40 41 154 345 356 332 348 37 349 7 10 56 48 29 5 18 342 317 355 29 29 8 119 76 304 319 69 246 231 134 233 242 237 229 227 246 258 196
332 325 287 220 297 321 50 52 187 14 344 358 341 330 47 356 355 8 56 42 20 37 7 16 328 12 335 339 249 211 164 164 225 207 257 122 233 254 253 18 5 344 304 303 306
329 336 360 333 340 53 70 62 190 292 303 342 317 19 358 344 334 47 46 356 53 27 64 16 275 340 345 342 23 315 180 156 174 352 95 230 288 305 4 1 357 346 344 338 327
328 341 298 332 337 64 73 128 84 344 343 38 46 13 358 334 2 21 72 359 2 356 169 122 288 21 295 336 13 69 355 65 5 206 233 269 281 300 347 340 341 341 339 332 328
17 19 286 338 45 50 93 3 334 2 51 33 29 31 52 332 302 358 1 53 354 330 88 29 160 305 341 41 281 337 22 359 123 138 193 213 273 330 303 311 323 328 325 323 334
345 14 324 343 51 30 55 317 314 343 10 38 82 69 75 359 321 21 88 83 319 342 44 22 141 291 259 89 57 64 50 48 62 207 228 176 247 332 322 312 331 341 339 335 342
357 281 331 28 67 4 316 312 345 4 9 55 92 83 45 359 322 30 26 198 53 104 136 306 353 7 351 348 38 50 47 36 229 14 237 164 217 34 356 341 340 345 341 335 348
34 355 339 36 49 92 5 304 327 352 34 14 81 54 70 284 289 294 269 313 315 216 78 94 138 167 192 228 175 290 317 351 108 224 334 256 320 348 342 335 336 340 333 337 335
27 320 180 331 358 359 254 334 339 356 352 24 59 73 195 259 285 279 279 310 290 252 94 115 207 205 238 270 278 267 284 270 234 218 222 268 308 308 313 309 317 309 339 332 342
47 22 359 301 305 341 4 29 33 339 305 343 53 314 260 227 221 258 238 237 245 334 110 19 245 188 262 237 242 267 258 253 255 246 255 265 272 263 259 271 334 324 321 337 335
332 360 98 326 344 8 249 82 1 353 283 79 348 311 240 214 275 235 219 229 233 201 195 168 165 123 268 193 236 274 249 229 223 215 227 243 265 272 279 291 301 309 300 303 333